Overview Statistics Trail Chart Weather Telemetry Raw packets
 

This is the latest recevied weather packets stored in our database for station/object W5LND-10. If no packets are shown the sender has not sent any weather packets the latest 10 day(s).

<< 111 112 113 114 >>
Time Temp. Humidity Pressure Rain* Wind** Luminosity Snow
1787764551 35° C 36% 1012.7 hPa 0 mm - 1123 W/m² -
1787764251 34.44° C 36% 1012.7 hPa 0 mm - 343 W/m² -
1787763951 34.44° C 36% 1012.8 hPa 0 mm - 1018 W/m² -
1787763651 33.89° C 36% 1012.8 hPa 0 mm - 988 W/m² -
1787763351 33.89° C 37% 1013 hPa 0 mm - 972 W/m² -
1787763051 33.33° C 38% 1012.9 hPa 0 mm - 345 W/m² -
1787762751 33.33° C 38% 1013.1 hPa 0 mm - 373 W/m² -
1787762451 33.33° C 38% 1013 hPa 0 mm - 373 W/m² -
1787762151 32.78° C 39% 1013.1 hPa 0 mm - 508 W/m² -
1787761851 32.78° C 39% 1013 hPa 0 mm - 650 W/m² -
1787761551 32.22° C 40% 1013 hPa 0 mm - 529 W/m² -
1787761251 31.67° C 40% 1013.1 hPa 0 mm - 469 W/m² -
1787760951 31.67° C 41% 1012.9 hPa 0 mm - 343 W/m² -
1787760651 31.67° C 40% 1013 hPa 0 mm - 294 W/m² -
1787760351 31.67° C 40% 1013 hPa 0 mm - 258 W/m² -
1787760051 31.67° C 40% 1012.8 hPa 0 mm - 258 W/m² -
1787759751 31.67° C 40% 1012.8 hPa 0 mm - 272 W/m² -
1787759451 31.67° C 40% 1012.9 hPa 0 mm - 302 W/m² -
1787759151 31.67° C 41% 1012.8 hPa 0 mm - 316 W/m² -
1787758851 31.11° C 41% 1012.8 hPa 0 mm - 376 W/m² -
1787758551 31.11° C 41% 1012.8 hPa 0 mm - 439 W/m² -

* Rain latest hour (hover to see other rain measurements)
** Current wind speed in m/s (hover to see current wind gust speed)